Location: Normandy Village
(37.8755°N, 122.2655°W)
Time: 10:16:49
(UTC+00:00)

CZ-4B R/B - Pass Details

Date: 22 September 2019
Orbit: 496 x 648 km, 97.7° (Epoch: 18 October)

Event Time Altitude Azimuth Distance (km) Brightness Sun altitude
Rises 12:27:30 0° 17° (NNE) 2,597 7.7 -18.2°
Reaches altitude 10° 12:29:37 10° 22° (NNE) 1,704 6.8 -17.8°
Maximum altitude 12:33:12 53° 100° (E) 614 4.4 -17.1°
Drops below altitude 10° 12:36:46 10° 179° (S) 1,700 6.2 -16.5°
Sets 12:38:53 0° 183° (S) 2,589 7.1 -16.0°
